Notices

What's New in latest Release from April 7th, 2021:

- Updated Glossary, including Speed of Maximum Gust, and Total Hourly Precipitation

- Updated national and regional climate services offices contacts and prices information

- Addition of station inventory lists for 1981-2010, 1971-2000, and 1961-1990 Normals.

If you haven't already, please take our survey and provide feedback about our website: https://eccc.sondage-survey.ca/f/LanguageSelection.aspx?s=442ca660-fcf1-47c0-95a9-59707d6fd709

Hourly Data Report for August 17, 2004

SHERBROOKE A
QUEBEC

45°26'00.000" N
71°41'00.000" W
241.40 m
7028124
71610
YSC

Download Data

Hourly Data (August 2004)
Hourly Data Report for August 17, 2004
TIME
LST
Temp Definition
°C
Dew Point Definition
°C
Rel Hum Definition
%
Precip. Amount Definition
mm

Wind Dir Definition
10's deg

Wind Spd Definition
km/h
Visibility Definition
km
Stn Press Definition
kPa
Hmdx Definition


Wind Chill Definition


Weather Definition


00:00 14.1 13.4 96     0 9.7 99.17      
01:00 12.1 11.5 96     0 1.0 99.13      
02:00 13.9 13.2 96     0 15.0 99.10      
03:00 14.7 14.1 96   20 6 1.8 99.12      
04:00 14.4 13.9 97   21 6 0.6 99.12      
05:00 14.2 13.8 97     0 0.5 99.14      
06:00 14.5 13.9 96   21 6 0.5 99.19      
07:00 15.0 14.4 96   23 4 9.7 99.17     Fog
08:00 15.2 14.3 94   25 6 9.7 99.18     Fog
09:00 16.8 14.5 86     0 16.1 99.18     Mostly Cloudy
10:00 19.5 14.6 73   29 6 19.3 99.12     Mostly Cloudy
11:00 21.4 15.0 67   26 9 24.1 99.04 25   Mostly Cloudy
12:00 22.3 13.2 56   32 7 24.1 98.97 25   Mostly Cloudy
13:00 22.1 12.6 55   30 9 24.1 98.92 25   Mostly Cloudy
14:00 23.9 11.6 46   27 7 24.1 98.85 26   Mostly Cloudy
15:00 23.4 12.6 51   30 9 24.1 98.81 26   Mostly Cloudy
16:00 24.0 13.8 53   28 7 24.1 98.80 27   Mostly Cloudy
17:00 22.0 12.1 53   26 7 15.0 98.76      
18:00 21.2 14.1 64   27 4 15.0 98.76 25    
19:00 17.4 14.3 82   25 4 15.0 98.77      
20:00 15.0 12.7 86   17 4 15.0 98.79      
21:00 14.4 13.0 91     0 15.0 98.80      
22:00 14.3 12.8 91   10 6 15.0 98.78      
23:00 14.5 12.8 90   11 4 15.0 98.76      

Notes on Data Quality.

Legend

  • E = Estimated
  • M = Missing
  • NA = Not Available*
  • [empty] = Indicates an unobserved value
Date modified: